DW9866 Weather Reports


Display with metric or nautical units.
time (UTC)temp
F
wind
direction
speed
MPH
gust
MPH
rain 1hr
in
rain 24hr
in
rain mn
in
humidity
%
barometer
mb
20260504191543 65 204 7.0 20.0 0.00 0.00 0.00 40 1008.7
20260504190021 65 204 4.0 15.0 0.00 0.00 0.00 40 1009.0
20260504184559 65 204 8.0 18.0 0.00 0.00 0.00 40 1009.0
20260504183036 64 205 7.0 21.0 0.00 0.00 0.00 40 1009.3
20260504181517 64 204 10.0 18.0 0.00 0.00 0.00 40 1009.4
20260504180053 64 204 9.0 22.0 0.00 0.00 0.00 39 1009.4
20260504174535 64 204 10.0 17.0 0.00 0.00 0.00 40 1009.6
20260504173010 63 204 8.0 18.0 0.00 0.00 0.00 41 1009.7
20260504171547 62 204 9.0 18.0 0.00 0.00 0.00 42 1009.9
20260504081555 43 206 6.0 12.0 0.00 0.00 0.00 60 1012.9
20260504080109 43 206 7.0 12.0 0.00 0.00 0.00 59 1012.9
20260504044519 44 206 5.0 12.0 0.00 0.00 0.00 58 1013.1
20260504043016 44 206 5.0 11.0 0.00 0.00 0.00 57 1013.0
20260504041505 44 206 4.0 11.0 0.00 0.00 0.00 56 1013.0
20260504040116 45 206 4.0 11.0 0.00 0.00 0.00 55 1012.8
20260504034550 45 206 4.0 9.0 0.00 0.00 0.00 55 1012.7
20260504033051 45 207 4.0 8.0 0.00 0.00 0.00 54 1012.7
20260504031557 46 206 5.0 10.0 0.00 0.00 0.00 54 1012.8
20260504030045 46 206 3.0 8.0 0.00 0.00 0.00 54 1012.8
20260504024547 46 207 5.0 11.0 0.00 0.00 0.00 53 1012.9
20260504023042 46 207 5.0 10.0 0.00 0.00 0.00 53 1012.8
20260504021539 46 206 4.0 12.0 0.00 0.00 0.00 52 1012.8
20260504020023 46 206 4.0 10.0 0.00 0.00 0.00 51 1012.8
20260504014522 46 206 4.0 8.0 0.00 0.00 0.00 50 1012.8
20260504013005 47 206 4.0 7.0 0.00 0.00 0.00 49 1012.7
20260504011552 47 206 4.0 10.0 0.00 0.00 0.00 48 1012.5
20260504010051 47 206 4.0 8.0 0.00 0.00 0.00 47 1012.5
20260504004542 48 206 2.0 6.0 0.00 0.00 0.00 46 1012.5
20260504003026 48 207 4.0 10.0 0.00 0.00 0.00 45 1012.4
20260504001520 48 206 3.0 9.0 0.00 0.00 0.00 44 1012.2
20260504000016 49 206 3.0 7.0 0.00 0.00 0.00 44 1012.1
20260503234507 49 207 4.0 12.0 0.00 0.00 0.00 43 1012.0
20260503233044 49 207 5.0 11.0 0.00 0.00 0.00 43 1011.9
20260503231519 50 206 4.0 10.0 0.00 0.00 0.00 42 1011.9
20260503230015 50 208 4.0 11.0 0.00 0.00 0.00 41 1011.8
20260503224559 50 207 3.0 11.0 0.00 0.00 0.00 42 1011.8
20260503223054 51 208 4.0 11.0 0.00 0.00 0.00 40 1011.8
20260503221542 51 206 2.0 17.0 0.00 0.00 0.00 40 1011.6
20260503220013 51 207 4.0 13.0 0.00 0.00 0.00 40 1011.7
20260503214513 51 207 4.0 11.0 0.00 0.00 0.00 40 1011.7
20260503213001 51 208 4.0 9.0 0.00 0.00 0.00 39 1011.4
20260503211551 51 207 4.0 10.0 0.00 0.00 0.00 38 1011.3
20260503210051 50 205 4.0 12.0 0.00 0.00 0.00 39 1011.3
20260503204541 50 208 4.0 12.0 0.00 0.00 0.00 37 1011.3
20260503203039 51 208 3.0 12.0 0.00 0.00 0.00 37 1011.2
20260503201532 50 208 9.0 18.0 0.00 0.00 0.00 35 1011.3
20260503200008 51 208 3.0 16.0 0.00 0.00 0.00 35 1011.5
20260503194543 51 206 5.0 16.0 0.00 0.00 0.00 35 1011.5
20260503193035 50 207 7.0 19.0 0.00 0.00 0.00 35 1011.7